period_start,C,m1,H,J0,J1,J2,J3,J4,J5,JA,JB,JC,JD,JJ,JK,JN,#
2017-04-17 00:04:47,0.11,5.39,0.00,24.41,27.24,30.72,14.52,49.43,1021.50,2026.99,1891.60,1965.19,2233.09,600.03,596.03,49.92,0000 0000 0000 0000 000000
2017-04-17 00:09:48,0.04,5.39,0.00,24.36,27.24,30.80,14.51,49.28,1021.50,2026.99,1890.88,1964.98,2232.51,600.30,596.47,49.97,0000 0000 0000 0000 000000
2017-04-17 00:14:49,0.07,5.40,0.00,24.53,27.25,30.81,14.51,49.25,1021.50,2026.99,1890.07,1964.62,2232.01,599.71,595.63,50.02,0000 0000 0000 0000 000000
2017-04-17 00:19:51,0.06,5.40,0.00,24.49,27.25,30.85,14.54,49.24,1021.50,2026.99,1889.44,1964.04,2231.80,600.19,596.11,50.07,0000 0000 0000 0000 000000
2017-04-17 00:24:52,0.04,5.40,0.00,24.45,27.25,30.82,14.48,49.28,1021.50,2026.99,1888.78,1964.00,2231.06,600.06,596.05,50.13,0000 0000 0000 0000 000000
2017-04-17 00:29:53,0.04,5.40,0.00,24.45,27.25,30.83,14.60,49.24,1021.50,2026.99,1887.94,1963.94,2230.78,600.17,596.13,50.18,0000 0000 0000 0000 000000
2017-04-17 00:34:55,0.10,5.41,0.00,24.48,27.24,30.78,14.53,49.27,1021.50,2026.99,1887.02,1963.19,2230.04,599.89,595.72,50.23,0000 0000 0000 0000 000000
2017-04-17 00:39:56,0.06,5.41,0.00,24.78,27.25,30.72,14.48,49.28,1021.50,2026.99,1886.08,1963.00,2229.55,599.66,594.96,50.28,0000 0000 0000 0000 000000
2017-04-17 00:44:58,0.05,5.42,0.00,24.64,27.25,30.70,14.53,49.38,1021.50,2026.99,1885.15,1962.96,2229.00,600.33,595.91,50.33,0000 0000 0000 0000 000000
2017-04-17 00:49:59,0.11,5.42,0.00,24.36,27.25,30.78,14.53,49.38,1021.50,2026.98,1884.07,1962.33,2228.31,600.17,596.35,50.38,0000 0000 0000 0000 000000
2017-04-17 00:55:00,0.04,5.42,0.00,24.58,27.25,30.82,14.45,49.27,1021.50,2026.99,1883.08,1962.01,2227.97,599.92,595.65,50.43,0000 0000 0000 0000 000000
2017-04-17 01:00:01,0.07,5.43,0.00,24.68,27.26,30.81,14.40,49.14,1021.50,2026.99,1882.09,1962.00,2227.20,599.53,595.06,50.48,0000 0000 0000 0000 000000
2017-04-17 01:05:02,0.05,5.43,0.00,24.76,27.27,30.81,14.51,49.26,1021.50,2026.99,1881.04,1961.95,2226.80,600.04,595.60,50.53,0000 0000 0000 0000 000000
2017-04-17 01:10:04,0.11,5.44,0.00,24.79,27.27,30.76,14.50,49.41,1021.50,2026.99,1879.86,1961.27,2226.03,599.99,594.86,50.58,0000 0000 0000 0000 000000
2017-04-17 01:15:05,0.08,5.44,0.00,24.78,27.27,30.73,14.43,49.39,1021.50,2026.99,1878.65,1961.02,2225.27,600.27,595.37,50.63,0000 0000 0000 0000 000000
2017-04-17 01:20:06,0.07,5.44,0.00,24.76,27.27,30.72,14.35,49.34,1021.50,2026.98,1877.31,1961.00,2224.58,599.66,594.93,50.68,0000 0000 0000 0000 000000
2017-04-17 01:25:07,0.08,5.45,0.00,24.75,27.27,30.71,14.44,49.38,1021.50,2026.98,1875.81,1960.98,2223.78,599.58,595.04,50.73,0000 0000 0000 0000 000000
2017-04-17 01:30:08,0.10,5.45,0.00,24.73,27.27,30.68,14.48,49.33,1021.51,2026.97,1874.27,1960.75,2222.89,600.25,595.48,50.78,0000 0000 0000 0000 000000
2017-04-17 01:35:10,0.12,5.46,0.00,24.76,27.27,30.67,14.44,49.49,1021.52,2026.99,1872.54,1960.25,2222.01,599.69,595.04,50.83,0000 0000 0000 0000 000000
2017-04-17 01:40:11,0.12,5.47,0.00,24.80,27.27,30.67,14.46,49.52,1021.50,2026.99,1870.58,1960.05,2221.04,599.88,595.16,50.88,0000 0000 0000 0000 000000
2017-04-17 01:45:12,0.11,5.47,0.00,24.78,27.27,30.66,14.52,49.60,1021.50,2026.99,1868.60,1960.00,2220.04,600.23,595.55,50.93,0000 0000 0000 0000 000000
2017-04-17 01:50:13,0.11,5.48,0.00,24.78,27.27,30.64,14.50,49.54,1021.51,2026.99,1866.50,1960.00,2219.00,600.16,595.35,50.99,0000 0000 0000 0000 000000
2017-04-17 01:55:14,0.11,5.48,0.00,24.82,27.27,30.63,14.48,49.52,1021.50,2026.99,1864.48,1959.98,2217.97,599.90,595.19,51.04,0000 0000 0000 0000 000000
2017-04-17 02:00:15,0.11,5.49,0.00,24.85,27.25,30.61,14.45,49.63,1021.50,2026.99,1862.48,1959.88,2216.99,600.17,595.33,51.09,0000 0000 0000 0000 000000
2017-04-17 02:05:17,0.15,5.50,0.00,24.84,27.25,30.60,14.42,49.54,1021.50,2026.99,1860.52,1959.31,2216.00,599.95,595.15,51.14,0000 0000 0000 0000 000000
2017-04-17 02:10:18,0.11,5.50,0.00,24.84,27.25,30.59,14.46,49.52,1021.50,2026.99,1858.58,1959.03,2215.03,600.09,595.24,51.19,0000 0000 0000 0000 000000
2017-04-17 02:15:19,0.10,5.51,0.00,24.84,27.25,30.61,14.41,49.49,1021.51,2026.99,1856.72,1959.00,2214.12,600.08,595.34,51.24,0000 0000 0000 0000 000000
2017-04-17 02:20:21,0.08,5.51,0.00,24.86,27.25,30.58,14.50,49.52,1021.50,2026.99,1855.14,1958.99,2213.28,600.16,595.32,51.29,0000 0000 0000 0000 000000
2017-04-17 02:25:22,0.11,5.52,0.00,24.86,27.24,30.58,14.52,49.58,1021.50,2026.99,1853.56,1958.89,2212.42,600.10,595.32,51.34,0000 0000 0000 0000 000000
2017-04-17 02:30:23,0.11,5.52,0.00,24.86,27.22,30.58,14.51,49.61,1021.50,2026.99,1851.93,1958.28,2211.73,600.07,595.20,51.39,0000 0000 0000 0000 000000
2017-04-17 02:35:25,0.08,5.53,0.00,24.87,27.22,30.56,14.43,49.58,1021.50,2026.99,1850.61,1958.05,2211.01,600.01,595.10,51.44,0000 0000 0000 0000 000000
2017-04-17 02:40:26,0.07,5.53,0.00,24.89,27.22,30.57,14.42,49.56,1021.50,2026.99,1849.41,1958.01,2210.24,599.91,595.04,51.49,0000 0000 0000 0000 000000
2017-04-17 02:45:27,0.06,5.53,0.00,24.88,27.22,30.55,14.42,49.58,1021.51,2027.00,1848.32,1957.99,2209.74,600.07,595.25,51.54,0000 0000 0000 0000 000000
2017-04-17 02:50:28,0.06,5.54,0.00,24.87,27.21,30.56,14.46,49.58,1021.51,2027.00,1847.28,1957.93,2209.04,600.02,595.20,51.59,0000 0000 0000 0000 000000
2017-04-17 02:55:30,0.07,5.54,0.00,24.88,27.20,30.56,14.41,49.60,1021.51,2027.00,1846.46,1957.52,2208.90,599.50,594.63,51.64,0000 0000 0000 0000 000000
2017-04-17 03:00:31,0.06,5.54,0.00,24.90,27.20,30.54,14.41,49.51,1021.52,2027.00,1845.73,1957.10,2208.21,599.76,594.86,51.69,0000 0000 0000 0000 000000
2017-04-17 03:05:32,0.02,5.55,0.00,24.90,27.20,30.52,14.48,49.52,1021.52,2027.00,1844.98,1957.01,2208.00,600.24,595.26,51.74,0000 0000 0000 0000 000000
2017-04-17 03:10:33,0.06,5.55,0.00,24.91,27.20,30.50,14.53,49.58,1021.52,2027.00,1844.17,1957.00,2207.54,600.20,595.30,51.79,0000 0000 0000 0000 000000
2017-04-17 03:15:34,0.04,5.55,0.00,24.91,27.20,30.50,14.43,49.63,1021.58,2027.00,1843.59,1956.95,2207.02,599.99,595.02,51.84,0000 0000 0000 0000 000000
2017-04-17 03:20:36,0.05,5.55,0.00,24.92,27.19,30.51,14.40,49.55,1021.81,2027.00,1842.96,1956.43,2206.89,599.99,595.22,51.89,0000 0000 0000 0000 000000
2017-04-17 03:25:37,0.07,5.56,0.00,24.92,27.18,30.50,14.41,49.56,1021.92,2027.00,1842.18,1956.07,2206.24,599.86,595.12,51.95,0000 0000 0000 0000 000000
2017-04-17 03:30:38,0.03,5.56,0.00,24.92,27.17,30.47,14.45,49.55,1021.96,2027.00,1841.68,1956.01,2205.99,599.79,595.13,52.00,0000 0000 0000 0000 000000
2017-04-17 03:35:39,0.05,5.56,0.00,24.92,27.17,30.49,14.45,49.41,1021.95,2027.00,1840.85,1955.99,2205.45,600.09,595.41,52.05,0000 0000 0000 0000 000000
2017-04-17 03:40:41,0.03,5.57,0.00,24.94,27.17,30.49,14.47,49.61,1021.99,2027.00,1840.05,1955.95,2205.01,599.90,595.22,52.10,0000 0000 0000 0000 000000
2017-04-17 03:45:42,0.07,5.57,0.00,24.94,27.17,30.50,14.49,49.62,1021.98,2027.01,1839.46,1955.50,2204.90,600.27,595.47,52.15,0000 0000 0000 0000 000000
2017-04-17 03:50:43,0.06,5.57,0.00,24.94,27.17,30.48,14.47,49.63,1021.99,2027.00,1838.78,1955.03,2204.10,600.05,595.43,52.20,0000 0000 0000 0000 000000
2017-04-17 03:55:45,0.02,5.57,0.00,24.95,27.17,30.48,14.33,49.59,1021.99,2027.00,1838.03,1955.00,2203.99,599.72,594.96,52.25,0000 0000 0000 0000 000000
2017-04-17 04:00:46,0.06,5.58,0.00,24.97,27.17,30.46,14.44,49.59,1021.99,2027.01,1837.26,1954.99,2203.37,600.19,595.49,52.30,0000 0000 0000 0000 000000
2017-04-17 04:05:47,0.05,5.58,0.00,24.96,27.17,30.48,14.50,49.54,1021.93,2027.01,1836.67,1954.74,2203.01,600.09,595.30,52.35,0000 0000 0000 0000 000000
2017-04-17 04:10:49,0.06,5.58,0.00,24.97,27.17,30.45,14.43,49.57,1021.86,2027.00,1835.99,1954.10,2202.68,599.88,595.14,52.40,0000 0000 0000 0000 000000
2017-04-17 04:15:50,0.05,5.59,0.00,25.00,27.17,30.47,14.49,49.59,1021.66,2027.00,1835.24,1954.00,2202.04,600.29,595.19,52.45,0000 0000 0000 0000 000000
2017-04-17 04:20:51,0.01,5.59,0.00,24.97,27.17,30.46,14.38,49.49,1021.54,2027.00,1834.76,1954.00,2201.98,599.73,594.74,52.50,0000 0000 0000 0000 000000
2017-04-17 04:25:53,0.05,5.59,0.00,24.98,27.17,30.45,14.31,49.50,1021.58,2027.01,1834.03,1953.93,2201.36,599.74,594.72,52.55,0000 0000 0000 0000 000000
2017-04-17 04:30:54,0.07,5.59,0.00,24.98,27.17,30.45,14.44,49.59,1021.55,2027.00,1833.37,1953.42,2201.01,600.13,595.16,52.60,0000 0000 0000 0000 000000
2017-04-17 04:35:55,0.02,5.60,0.00,25.00,27.17,30.44,14.44,49.53,1021.58,2027.00,1832.88,1953.05,2200.85,599.96,594.89,52.65,0000 0000 0000 0000 000000
2017-04-17 04:40:57,0.06,5.60,0.00,25.00,27.17,30.46,14.42,49.54,1021.62,2027.00,1832.07,1953.00,2200.10,599.96,594.92,52.70,0000 0000 0000 0000 000000
2017-04-17 04:45:58,0.04,5.60,0.00,24.98,27.17,30.46,14.40,49.64,1021.61,2027.00,1831.35,1952.95,2199.97,599.46,594.48,52.75,0000 0000 0000 0000 000000
2017-04-17 04:50:59,0.07,5.60,0.00,24.97,27.17,30.45,14.45,49.65,1021.54,2027.01,1830.77,1952.59,2199.32,600.20,595.14,52.81,0000 0000 0000 0000 000000
2017-04-17 04:56:00,0.04,5.61,0.00,25.00,27.17,30.46,14.45,49.47,1021.51,2027.00,1830.02,1952.06,2199.00,599.95,594.80,52.86,0000 0000 0000 0000 000000
2017-04-17 05:01:01,0.05,5.61,0.00,25.01,27.17,30.46,14.49,49.68,1021.50,2027.01,1829.30,1952.00,2198.67,600.11,594.96,52.91,0000 0000 0000 0000 000000
2017-04-17 05:06:02,0.04,5.61,0.00,25.03,27.17,30.47,14.38,49.54,1021.50,2027.01,1828.62,1952.00,2198.03,600.01,594.83,52.96,0000 0000 0000 0000 000000
2017-04-17 05:11:04,0.03,5.61,0.00,25.02,27.17,30.47,14.40,49.72,1021.50,2027.01,1827.84,1951.94,2197.80,599.82,594.68,53.01,0000 0000 0000 0000 000000
2017-04-17 05:16:05,0.09,5.62,0.00,25.02,27.17,30.48,14.44,49.75,1021.50,2027.01,1827.02,1951.40,2197.06,599.73,594.55,53.06,0000 0000 0000 0000 000000
2017-04-17 05:21:06,0.05,5.62,0.00,25.02,27.17,30.46,14.41,49.65,1021.51,2027.00,1826.16,1951.03,2196.83,599.87,594.68,53.11,0000 0000 0000 0000 000000
2017-04-17 05:26:08,0.06,5.62,0.00,24.99,27.17,30.47,14.49,49.75,1021.52,2027.00,1825.24,1950.99,2196.06,600.09,594.91,53.16,0000 0000 0000 0000 000000
2017-04-17 05:31:09,0.06,5.63,0.00,24.94,27.17,30.45,14.39,49.80,1021.52,2027.00,1824.38,1950.83,2195.76,599.88,594.81,53.21,0000 0000 0000 0000 000000
2017-04-17 05:36:11,0.08,5.63,0.00,24.91,27.18,30.48,14.47,49.87,1021.56,2027.00,1823.58,1950.21,2195.05,600.23,595.32,53.26,0000 0000 0000 0000 000000
2017-04-17 05:41:12,0.06,5.63,0.00,24.70,27.18,30.49,14.44,49.92,1021.60,2027.00,1822.60,1950.01,2194.76,600.14,595.68,53.31,0000 0000 0000 0000 000000
2017-04-17 05:46:13,0.04,5.64,0.00,24.48,27.17,30.47,14.49,49.88,1021.80,2027.00,1821.81,1950.00,2194.07,599.81,595.89,53.36,0000 0000 0000 0000 000000
2017-04-17 05:51:15,0.04,5.64,0.00,24.37,27.17,30.43,14.52,49.88,1021.83,2027.00,1820.88,1949.95,2193.80,600.12,596.39,53.41,0000 0000 0000 0000 000000
2017-04-17 05:56:16,0.06,5.64,0.00,24.22,27.15,30.52,14.56,49.87,1021.62,2027.01,1820.05,1949.79,2193.10,600.27,596.75,53.46,0000 0000 0000 0000 000000
2017-04-17 06:01:18,0.07,5.65,0.00,24.04,27.14,30.55,14.51,49.98,1021.54,2027.03,1819.46,1949.37,2193.00,599.84,596.58,53.51,0000 0000 0000 0000 000000
2017-04-17 06:06:19,0.05,5.65,0.00,23.90,27.12,30.54,14.53,49.87,1021.61,2027.03,1818.67,1949.02,2192.62,599.96,597.07,53.56,0000 0000 0000 0000 000000
2017-04-17 06:11:20,0.07,5.65,0.00,23.77,27.10,30.47,14.48,49.89,1021.63,2027.05,1817.61,1949.00,2192.03,599.81,597.19,53.61,0000 0000 0000 0000 000000
2017-04-17 06:16:21,0.09,5.66,0.00,23.64,27.07,30.40,14.61,50.08,1021.72,2027.37,1816.67,1948.99,2191.88,600.10,597.77,53.66,0000 0000 0000 0000 000000
2017-04-17 06:21:23,0.07,5.66,0.00,23.58,27.04,30.43,14.61,50.02,1021.57,2027.60,1815.86,1948.96,2191.09,599.79,597.59,53.71,0000 0000 0000 0000 000000
2017-04-17 06:26:24,0.08,5.67,0.00,23.62,27.02,30.28,14.46,49.88,1021.55,2027.89,1815.06,1948.72,2190.99,599.64,597.33,53.77,0000 0000 0000 0000 000000
2017-04-17 06:31:26,0.08,5.67,0.00,23.71,27.00,30.23,14.53,49.96,1021.61,2027.95,1814.29,1948.32,2190.73,599.97,597.44,53.82,0000 0000 0000 0000 000000
2017-04-17 06:36:27,0.05,5.67,0.00,23.77,26.97,30.23,14.57,49.92,1021.58,2027.97,1813.76,1948.05,2190.06,600.08,597.50,53.87,0000 0000 0000 0000 000000
2017-04-17 06:41:28,0.02,5.67,0.00,23.77,26.96,30.35,14.46,49.82,1021.51,2027.99,1813.04,1948.00,2190.00,599.63,596.96,53.92,0000 0000 0000 0000 000000
2017-04-17 06:46:29,0.04,5.68,0.00,23.85,26.95,30.44,14.54,49.85,1021.53,2027.99,1812.42,1948.00,2189.76,599.91,597.10,53.97,0000 0000 0000 0000 000000
2017-04-17 06:51:31,0.02,5.68,0.00,23.97,26.95,30.46,14.55,49.83,1021.52,2027.99,1811.98,1947.99,2189.08,599.83,596.79,54.02,0000 0000 0000 0000 000000
2017-04-17 06:56:32,0.06,5.68,0.00,23.99,26.95,30.39,14.48,49.76,1021.53,2027.99,1811.22,1947.72,2189.00,600.05,596.95,54.07,0000 0000 0000 0000 000000
2017-04-17 07:01:33,0.05,5.68,0.00,24.03,26.95,30.39,14.47,49.73,1021.60,2027.99,1810.94,1947.10,2188.55,599.50,596.50,54.12,0000 0000 0000 0000 000000
2017-04-17 07:06:34,0.05,5.69,0.00,24.13,26.97,30.48,14.47,49.83,1021.73,2027.99,1810.15,1947.00,2188.03,599.89,596.85,54.17,0000 0000 0000 0000 000000
2017-04-17 07:11:35,0.01,5.69,0.00,24.18,26.99,30.52,14.47,49.86,1021.91,2027.99,1809.89,1946.98,2187.98,599.47,596.32,54.22,0000 0000 0000 0000 000000
2017-04-17 07:16:37,0.10,5.69,0.00,24.25,27.01,30.58,14.51,49.71,1021.98,2027.99,1809.10,1946.52,2187.23,599.95,596.60,54.27,0000 0000 0000 0000 000000
2017-04-17 07:21:38,0.03,5.69,0.00,24.68,27.04,30.59,14.55,49.61,1021.99,2027.97,1808.72,1946.02,2187.00,600.57,596.48,54.32,0000 0000 0000 0000 000000
2017-04-17 07:26:39,0.04,5.70,0.00,24.44,27.07,30.56,14.51,49.73,1021.99,2027.95,1808.01,1945.99,2186.35,599.82,596.17,54.37,0000 0000 0000 0000 000000
2017-04-17 07:31:41,0.04,5.70,0.00,24.54,27.10,30.63,14.53,49.88,1021.99,2027.70,1807.29,1945.67,2186.00,600.22,596.36,54.42,0000 0000 0000 0000 000000
2017-04-17 07:36:42,0.01,5.70,0.00,24.63,27.13,30.70,14.51,49.69,1022.00,2027.35,1806.88,1945.06,2185.50,600.21,596.11,54.47,0000 0000 0000 0000 000000
2017-04-17 07:41:43,0.01,5.70,0.00,24.68,27.16,30.77,14.45,49.65,1022.02,2027.06,1806.07,1945.00,2185.02,600.36,596.08,54.52,0000 0000 0000 0000 000000
2017-04-17 07:46:44,0.03,5.70,0.00,24.72,27.18,30.79,14.51,49.78,1022.06,2027.02,1805.74,1944.93,2184.78,600.15,595.86,54.57,0000 0000 0000 0000 000000
2017-04-17 07:51:46,0.08,5.71,0.00,24.70,27.20,30.79,14.50,49.67,1022.16,2027.00,1805.04,1944.28,2184.07,599.72,595.55,54.62,0000 0000 0000 0000 000000
2017-04-17 07:56:47,0.04,5.71,0.00,24.67,27.21,30.79,14.44,49.61,1022.34,2027.00,1804.49,1944.01,2183.91,599.88,595.78,54.67,0000 0000 0000 0000 000000
2017-04-17 08:01:48,0.03,5.71,0.00,24.55,27.22,30.74,14.52,49.77,1022.43,2027.00,1803.94,1943.98,2183.16,599.95,596.20,54.73,0000 0000 0000 0000 000000
2017-04-17 08:06:50,0.07,5.71,0.00,24.48,27.22,30.68,14.43,49.60,1022.30,2026.99,1803.13,1943.47,2182.99,599.96,596.35,54.78,0000 0000 0000 0000 000000
2017-04-17 08:11:51,0.06,5.72,0.00,24.50,27.22,30.66,14.52,49.58,1022.23,2026.99,1802.69,1943.02,2182.40,600.29,596.59,54.83,0000 0000 0000 0000 000000
2017-04-17 08:16:52,0.02,5.72,0.00,24.52,27.22,30.67,14.43,49.52,1022.42,2026.97,1802.02,1942.98,2182.00,599.62,595.90,54.88,0000 0000 0000 0000 000000
2017-04-17 08:21:54,0.09,5.72,0.00,24.79,27.22,30.75,14.40,49.46,1022.47,2026.96,1801.57,1942.44,2181.58,599.69,595.62,54.93,0000 0000 0000 0000 000000
2017-04-17 08:26:55,0.03,5.73,0.00,24.71,27.22,30.73,14.53,49.45,1022.47,2026.95,1800.97,1942.01,2181.02,600.21,596.12,54.98,0000 0000 0000 0000 000000
2017-04-17 08:31:56,0.06,5.73,0.00,24.58,27.24,30.79,14.53,49.41,1022.48,2026.90,1800.15,1941.83,2180.62,600.24,596.50,55.03,0000 0000 0000 0000 000000
2017-04-17 08:36:58,0.06,5.73,0.00,24.71,27.25,30.84,14.42,49.40,1022.48,2026.75,1799.71,1941.13,2180.03,599.75,595.79,55.08,0000 0000 0000 0000 000000
2017-04-17 08:41:59,0.04,5.73,0.00,24.71,27.25,30.80,14.51,49.30,1022.48,2026.71,1798.87,1940.98,2179.59,600.17,596.23,55.13,0000 0000 0000 0000 000000
2017-04-17 08:47:00,0.12,5.74,0.00,24.73,27.25,30.82,14.49,49.38,1022.46,2026.73,1797.85,1940.22,2178.95,600.63,596.59,55.18,0000 0000 0000 0000 000000
2017-04-17 08:52:02,0.02,5.74,0.00,24.73,27.25,30.78,14.49,49.48,1022.46,2026.44,1797.04,1939.98,2178.17,599.84,595.86,55.23,0000 0000 0000 0000 000000
2017-04-17 08:57:03,0.05,5.74,0.00,24.72,27.25,30.76,14.53,49.34,1022.46,2026.31,1796.41,1939.50,2177.96,600.01,596.06,55.28,0000 0000 0000 0000 000000
2017-04-17 09:02:04,0.05,5.75,0.00,24.75,27.25,30.76,14.47,49.42,1022.48,2026.22,1795.74,1939.01,2177.18,600.01,596.00,55.33,0000 0000 0000 0000 000000
2017-04-17 09:07:06,0.05,5.75,0.00,24.74,27.25,30.73,14.53,49.38,1022.48,2026.37,1795.03,1938.96,2177.00,600.36,596.35,55.38,0000 0000 0000 0000 000000
2017-04-17 09:12:07,0.11,5.75,0.00,24.72,27.23,30.72,14.52,49.44,1022.48,2026.57,1794.44,1938.28,2176.61,600.15,596.33,55.43,0000 0000 0000 0000 000000
2017-04-17 09:17:08,0.03,5.76,0.00,24.70,27.22,30.68,14.46,49.45,1022.48,2026.61,1793.95,1938.00,2176.02,599.50,595.66,55.48,0000 0000 0000 0000 000000
2017-04-17 09:22:10,0.05,5.76,0.00,24.65,27.22,30.69,14.46,49.38,1022.48,2026.39,1793.14,1937.81,2175.59,599.80,595.95,55.53,0000 0000 0000 0000 000000
2017-04-17 09:27:11,0.12,5.76,0.00,24.53,27.20,30.60,14.54,49.45,1022.48,2026.57,1792.56,1937.08,2175.02,599.85,596.17,55.59,0000 0000 0000 0000 000000
2017-04-17 09:32:12,0.03,5.77,0.00,24.47,27.20,30.56,14.47,49.41,1022.48,2026.75,1791.99,1937.00,2174.95,599.95,596.47,55.64,0000 0000 0000 0000 000000
2017-04-17 09:37:13,0.09,5.77,0.00,24.45,27.17,30.58,14.54,49.33,1022.48,2026.78,1791.18,1936.61,2174.24,599.94,596.56,55.69,0000 0000 0000 0000 000000
2017-04-17 09:42:15,0.03,5.77,0.00,24.43,27.17,30.55,14.48,49.37,1022.48,2026.81,1790.86,1936.04,2174.00,599.74,596.41,55.74,0000 0000 0000 0000 000000
2017-04-17 09:47:16,0.07,5.78,0.00,24.37,27.15,30.57,14.45,49.43,1022.48,2026.88,1790.07,1935.99,2173.58,599.79,596.41,55.79,0000 0000 0000 0000 000000
2017-04-17 09:52:18,0.03,5.78,0.00,24.46,27.15,30.63,14.52,49.38,1022.48,2026.92,1789.81,1935.80,2173.03,600.16,596.66,55.84,0000 0000 0000 0000 000000
2017-04-17 09:57:19,0.07,5.78,0.00,24.68,27.15,30.65,14.47,49.25,1022.48,2026.97,1789.07,1935.11,2172.96,600.20,596.17,55.89,0000 0000 0000 0000 000000
2017-04-17 10:02:20,0.06,5.79,0.00,24.35,27.15,30.66,14.53,49.49,1022.48,2026.95,1788.40,1934.99,2172.22,600.13,596.87,55.94,0000 0000 0000 0000 000000
2017-04-17 10:07:21,0.04,5.79,0.00,24.44,27.15,30.74,14.52,49.34,1022.49,2026.96,1787.94,1934.57,2172.00,599.88,596.46,55.99,0000 0000 0000 0000 000000
2017-04-17 10:12:23,0.07,5.79,0.00,24.47,27.15,30.72,14.51,49.10,1022.50,2026.96,1787.16,1934.02,2171.46,599.82,596.39,56.04,0000 0000 0000 0000 000000
2017-04-17 10:17:24,0.01,5.79,0.00,24.38,27.15,30.70,14.47,49.40,1022.49,2026.97,1786.97,1933.99,2171.02,599.85,596.61,56.09,0000 0000 0000 0000 000000
2017-04-17 10:22:25,0.04,5.79,0.00,24.29,27.15,30.72,14.48,49.34,1022.49,2026.98,1786.43,1933.92,2170.98,599.75,596.74,56.14,0000 0000 0000 0000 000000
2017-04-17 10:27:26,0.08,5.80,0.00,24.23,27.14,30.72,14.48,49.34,1022.50,2026.96,1785.94,1933.22,2170.36,599.80,596.88,56.19,0000 0000 0000 0000 000000
2017-04-17 10:32:27,0.04,5.80,0.00,24.18,27.12,30.72,14.55,49.27,1022.50,2026.97,1785.16,1933.00,2170.00,600.06,597.19,56.24,0000 0000 0000 0000 000000
2017-04-17 10:37:28,0.09,5.80,0.00,24.16,27.12,30.70,14.54,49.21,1022.51,2026.97,1784.52,1932.66,2169.49,599.87,597.05,56.29,0000 0000 0000 0000 000000
2017-04-17 10:42:30,0.03,5.81,0.00,24.11,27.10,30.70,14.57,49.35,1022.51,2026.98,1783.96,1932.03,2169.00,600.18,597.45,56.34,0000 0000 0000 0000 000000
2017-04-17 10:47:31,0.06,5.81,0.00,24.07,27.10,30.70,14.51,49.33,1022.49,2026.99,1783.16,1931.97,2168.58,600.13,597.44,56.39,0000 0000 0000 0000 000000
2017-04-17 10:52:32,0.05,5.81,0.00,24.09,27.10,30.72,14.44,49.23,1022.48,2026.98,1782.89,1931.39,2168.02,600.00,597.31,56.44,0000 0000 0000 0000 000000
2017-04-17 10:57:33,0.04,5.82,0.00,24.50,27.10,30.71,14.47,49.25,1022.49,2026.97,1782.12,1931.01,2167.95,599.91,596.46,56.49,0000 0000 0000 0000 000000
2017-04-17 11:02:35,0.03,5.82,0.00,24.23,27.10,30.70,14.51,49.42,1022.49,2026.93,1781.89,1930.96,2167.18,599.95,597.03,56.54,0000 0000 0000 0000 000000
2017-04-17 11:07:36,0.08,5.82,0.00,24.28,27.10,30.74,14.55,49.32,1022.48,2026.89,1781.11,1930.28,2166.97,599.81,596.72,56.60,0000 0000 0000 0000 000000
2017-04-17 11:12:37,0.05,5.82,0.00,24.28,27.10,30.80,14.55,49.33,1022.48,2026.94,1780.77,1930.01,2166.49,600.05,596.94,56.65,0000 0000 0000 0000 000000
2017-04-17 11:17:39,0.03,5.83,0.00,24.14,27.10,30.82,14.59,49.35,1022.48,2026.93,1780.03,1929.96,2166.01,599.91,597.12,56.70,0000 0000 0000 0000 000000
2017-04-17 11:22:40,0.07,5.83,0.00,24.06,27.09,30.85,14.50,49.32,1022.48,2026.96,1779.56,1929.50,2165.91,599.65,596.99,56.75,0000 0000 0000 0000 000000
2017-04-17 11:27:42,0.05,5.83,0.00,23.99,27.07,30.77,14.58,49.40,1022.48,2026.97,1779.01,1929.02,2165.18,599.90,597.29,56.80,0000 0000 0000 0000 000000
2017-04-17 11:32:43,0.04,5.84,0.00,23.95,27.05,30.71,14.50,49.40,1022.48,2026.99,1778.39,1929.00,2165.00,599.37,597.06,56.85,0000 0000 0000 0000 000000
2017-04-17 11:37:45,0.03,5.84,0.00,23.87,27.04,30.71,14.56,49.37,1022.48,2026.98,1777.97,1928.78,2164.87,599.69,597.32,56.90,0000 0000 0000 0000 000000
2017-04-17 11:42:45,0.10,5.84,0.00,23.81,27.02,30.73,14.57,49.28,1022.48,2026.99,1777.28,1928.09,2164.13,599.88,597.68,56.95,0000 0000 0000 0000 000000
2017-04-17 11:47:47,0.01,5.84,0.00,23.74,27.00,30.76,14.56,49.39,1022.48,2026.99,1776.96,1928.00,2164.00,599.66,597.50,57.00,0000 0000 0000 0000 000000
2017-04-17 11:52:48,0.05,5.85,0.00,23.73,27.00,30.79,14.63,49.29,1022.48,2026.99,1776.22,1927.97,2163.86,600.14,597.95,57.05,0000 0000 0000 0000 000000
2017-04-17 11:57:49,0.06,5.85,0.00,23.69,26.97,30.81,14.62,49.32,1022.48,2026.99,1775.99,1927.48,2163.14,600.02,598.17,57.10,0000 0000 0000 0000 000000
2017-04-17 12:02:50,0.04,5.85,0.00,23.65,26.97,30.84,14.50,49.30,1022.48,2027.00,1775.52,1927.02,2163.00,599.82,597.97,57.15,0000 0000 0000 0000 000000
2017-04-17 12:07:52,0.01,5.85,0.00,23.59,26.97,30.83,14.63,49.29,1022.48,2027.01,1775.00,1927.00,2162.90,600.32,598.57,57.20,0000 0000 0000 0000 000000
2017-04-17 12:12:53,0.07,5.85,0.00,23.56,26.96,30.83,14.62,49.33,1022.48,2027.00,1774.48,1926.85,2162.19,599.99,598.36,57.25,0000 0000 0000 0000 000000
2017-04-17 12:17:54,0.04,5.86,0.00,23.54,26.95,30.84,14.57,49.27,1022.48,2027.00,1774.00,1926.15,2162.00,599.86,598.19,57.30,0000 0000 0000 0000 000000
2017-04-17 12:22:56,0.03,5.86,0.00,23.49,26.95,30.87,14.56,49.29,1022.48,2027.02,1773.67,1926.00,2161.89,599.98,598.40,57.35,0000 0000 0000 0000 000000
2017-04-17 12:27:57,0.04,5.86,0.00,23.48,26.95,30.88,14.64,49.37,1022.46,2027.01,1773.03,1925.99,2161.13,600.13,598.56,57.40,0000 0000 0000 0000 000000
2017-04-17 12:32:58,0.04,5.86,0.00,23.43,26.95,30.90,14.75,49.32,1022.45,2027.02,1772.81,1925.59,2160.99,600.25,598.86,57.46,0000 0000 0000 0000 000000
2017-04-17 12:37:59,0.06,5.87,0.00,23.39,26.95,30.92,14.58,49.30,1022.46,2027.00,1772.08,1925.03,2160.71,599.71,598.38,57.51,0000 0000 0000 0000 000000
2017-04-17 12:43:01,0.02,5.87,0.00,23.37,26.95,30.92,14.73,49.34,1022.43,2027.01,1771.98,1925.00,2160.08,600.43,599.13,57.56,0000 0000 0000 0000 000000
2017-04-17 12:48:02,0.04,5.87,0.00,23.35,26.95,30.89,14.64,49.23,1022.43,2027.02,1771.31,1924.96,2160.00,599.84,598.67,57.61,0000 0000 0000 0000 000000
2017-04-17 12:53:03,0.05,5.87,0.00,23.31,26.95,30.86,14.61,49.21,1022.38,2027.03,1771.00,1924.27,2159.85,599.92,598.67,57.66,0000 0000 0000 0000 000000
2017-04-17 12:58:05,0.05,5.88,0.00,23.27,26.95,30.88,14.66,49.36,1022.43,2027.03,1770.66,1924.02,2159.17,599.87,598.84,57.71,0000 0000 0000 0000 000000